EW4089 Weather Reports


time (UTC)temp
C
wind
direction
speed
KPH
gust
KPH
rain 1hr
cm
rain 24hr
cm
rain mn
cm
humidity
%
barometer
mb
20260506125235 25 98 6.4 9.7 0.00 0.00 0.00 97 1007.0
20260506124727 25 98 6.4 9.7 0.00 0.00 0.00 97 1007.1
20260506124220 25 98 4.8 8.0 0.00 0.00 0.00 97 1007.1
20260506123714 25 98 4.8 9.7 0.00 0.00 0.00 97 1007.0
20260506123150 25 98 4.8 9.7 0.00 0.00 0.00 97 1007.0
20260506122624 25 98 3.2 8.0 0.00 0.00 0.00 97 1007.1
20260506122119 25 98 3.2 8.0 0.00 0.00 0.00 97 1007.2
20260506121546 25 98 4.8 9.7 0.00 0.00 0.00 97 1007.0
20260506121039 25 98 4.8 8.0 0.00 0.00 0.00 97 1007.0
20260506120505 25 98 4.8 9.7 0.00 0.00 0.00 97 1007.0
20260506115958 25 98 6.4 8.0 0.00 0.00 0.00 97 1006.9
20260506115435 25 99 6.4 9.7 0.00 0.00 0.00 97 1006.7
20260506114933 25 99 4.8 9.7 0.00 0.00 0.00 97 1006.9
20260506114405 25 99 4.8 11.3 0.00 0.00 0.00 97 1006.8
20260506113901 25 99 4.8 11.3 0.00 0.00 0.00 97 1006.8
20260506113355 25 103 4.8 8.0 0.00 0.00 0.00 97 1006.8
20260506113116 25 103 3.2 8.0 0.00 0.00 0.00 97 1006.8
20260506112345 25 103 3.2 9.7 0.00 0.00 0.00 97 1006.8
20260506111841 25 103 3.2 9.7 0.00 0.00 0.00 97 1006.8
20260506111316 25 103 4.8 11.3 0.00 0.00 0.00 97 1006.8
20260506110806 25 103 4.8 11.3 0.00 0.00 0.00 97 1006.7
20260506110522 25 104 4.8 9.7 0.00 0.00 0.00 97 1006.7
20260506105727 25 103 4.8 9.7 0.00 0.00 0.00 97 1006.7
20260506105202 25 103 6.4 12.9 0.00 0.00 0.00 97 1006.5
20260506104657 25 103 8.0 14.5 0.00 0.00 0.00 97 1006.5
20260506104406 25 103 6.4 14.5 0.00 0.00 0.00 97 1006.5
20260506103637 25 101 6.4 11.3 0.00 0.00 0.00 97 1006.4
20260506103336 25 101 6.4 11.3 0.00 0.00 0.00 97 1006.5
20260506102834 25 101 6.4 11.3 0.00 0.00 0.00 97 1006.4
20260506102053 25 101 6.4 11.3 0.00 0.00 0.00 97 1006.5
20260506101553 25 101 4.8 11.3 0.00 0.00 0.00 97 1006.5
20260506101056 25 101 4.8 11.3 0.00 0.00 0.00 97 1006.4
20260506100549 25 101 6.4 12.9 0.00 0.00 0.00 97 1006.4
20260506100024 25 101 6.4 12.9 0.00 0.00 0.00 96 1006.3
20260506095737 25 101 6.4 9.7 0.00 0.00 0.00 96 1006.3
20260506094953 25 100 4.8 9.7 0.00 0.00 0.00 96 1006.4
20260506094449 25 100 4.8 9.7 0.00 0.00 0.00 96 1006.4
20260506094150 25 100 4.8 9.7 0.00 0.00 0.00 96 1006.4
20260506093416 25 100 4.8 9.7 0.00 0.00 0.00 96 1006.2
20260506092854 25 100 4.8 9.7 0.00 0.00 0.00 96 1006.3
20260506092344 25 100 6.4 11.3 0.00 0.00 0.00 96 1006.2
20260506091828 25 100 4.8 11.3 0.00 0.00 0.00 96 1006.2
20260506091324 25 100 3.2 9.7 0.00 0.00 0.00 96 1006.3
20260506091013 25 100 3.2 9.7 0.00 0.00 0.00 96 1006.4
20260506090224 25 100 4.8 11.3 0.00 0.00 0.00 96 1006.3
20260506085721 25 100 4.8 11.3 0.00 0.00 0.00 96 1006.2
20260506085207 25 100 4.8 8.0 0.00 0.00 0.00 96 1006.2
20260506084633 25 100 4.8 11.3 0.00 0.00 0.00 96 1006.3
20260506084102 25 100 4.8 11.3 0.00 0.00 0.00 96 1006.3
20260506083556 25 100 4.8 9.7 0.00 0.00 0.00 96 1006.4
20260506083051 25 100 6.4 12.9 0.00 0.00 0.00 96 1006.3
20260506082016 25 101 8.0 11.3 0.00 0.00 0.00 96 1006.1
20260506081455 25 101 8.0 14.5 0.00 0.00 0.00 96 1006.2
20260506080953 25 101 6.4 14.5 0.00 0.00 0.00 96 1006.2
20260506080441 25 101 6.4 14.5 0.00 0.00 0.00 96 1006.4
20260506073356 25 131 8.0 12.9 0.00 0.00 0.00 95 1006.7
20260506072854 25 140 8.0 16.1 0.00 0.00 0.00 95 1006.8
20260506072351 25 134 8.0 16.1 0.00 0.00 0.00 95 1006.8
20260506071847 25 150 8.0 16.1 0.00 0.00 0.00 95 1006.9
20260506071340 25 114 8.0 16.1 0.00 0.00 0.00 95 1007.1
20260506070837 25 114 9.7 16.1 0.00 0.00 0.00 95 1007.1
20260506070309 25 114 9.7 17.7 0.00 0.00 0.00 95 1007.1
20260506062040 25 158 8.0 14.5 0.00 0.00 0.00 94 1007.5
20260506061508 25 154 8.0 19.3 0.00 0.00 0.00 94 1007.6
20260506060443 25 151 11.3 24.1 0.00 0.00 0.00 94 1007.6
20260506060200 25 159 11.3 22.5 0.00 0.00 0.00 94 1007.6
20260506051319 26 140 12.9 22.5 0.00 0.00 0.00 93 1007.2
20260506050754 26 162 12.9 22.5 0.00 0.00 0.00 93 1007.0
20260506050233 26 145 12.9 22.5 0.00 0.00 0.00 93 1007.0
20260506044639 26 135 12.9 22.5 0.00 0.00 0.00 93 1007.0
20260506044108 25 149 11.3 22.5 0.00 0.00 0.00 94 1007.0
20260506043552 25 124 11.3 17.7 0.00 0.00 0.00 94 1007.1
20260506043049 25 140 11.3 20.9 0.00 0.00 0.00 94 1006.9
20260506042551 25 130 11.3 25.7 0.00 0.00 0.00 94 1006.7
20260506042027 25 130 11.3 25.7 0.00 0.00 0.00 94 1006.9
20260506041526 25 172 11.3 20.9 0.00 0.00 0.00 94 1006.8
20260506041017 25 132 11.3 22.5 0.00 0.00 0.00 94 1006.8
20260506040510 25 128 12.9 22.5 0.00 0.00 0.00 94 1006.8
20260506035946 25 157 12.9 22.5 0.00 0.00 0.00 94 1006.8
20260506035441 25 136 12.9 19.3 0.00 0.00 0.00 94 1006.7
20260506035208 25 136 11.3 19.3 0.00 0.00 0.00 94 1006.6
20260506034410 25 133 11.3 24.1 0.00 0.00 0.00 94 1006.6
20260506033903 25 127 12.9 24.1 0.00 0.00 0.00 94 1006.7
20260506033401 25 107 11.3 19.3 0.00 0.00 0.00 94 1006.6
20260506032827 25 115 11.3 19.3 0.00 0.00 0.00 94 1006.6
20260506032301 25 107 9.7 17.7 0.00 0.00 0.00 94 1006.6
20260506031742 25 171 9.7 17.7 0.00 0.00 0.00 94 1006.7
20260506031238 25 115 8.0 16.1 0.00 0.00 0.00 94 1006.7
20260506030731 25 132 9.7 16.1 0.00 0.00 0.00 94 1006.7
20260506030208 25 121 9.7 16.1 0.00 0.00 0.00 94 1006.6
20260506025704 25 138 9.7 17.7 0.00 0.00 0.00 94 1006.5
20260506025207 25 123 9.7 17.7 0.00 0.00 0.00 94 1006.5
20260506024647 25 132 9.7 17.7 0.00 0.00 0.00 94 1006.5
20260506024402 25 127 8.0 16.1 0.00 0.00 0.00 94 1006.3
20260506023646 25 146 8.0 16.1 0.00 0.00 0.00 94 1006.3
20260506023123 25 118 8.0 17.7 0.00 0.00 0.00 94 1006.2
20260506022552 25 128 8.0 17.7 0.00 0.00 0.00 94 1006.1
20260506022032 25 119 8.0 19.3 0.00 0.00 0.00 93 1006.1
20260506021530 25 122 8.0 19.3 0.00 0.00 0.00 93 1006.1
20260506021256 25 153 8.0 14.5 0.00 0.00 0.00 93 1006.1
20260506020501 26 148 8.0 19.3 0.00 0.00 0.00 93 1006.0
20260506015931 26 167 8.0 19.3 0.00 0.00 0.00 93 1005.9
20260506015405 26 149 9.7 19.3 0.00 0.00 0.00 93 1005.8
20260506014901 26 161 9.7 19.3 0.00 0.00 0.00 93 1005.6
20260506014359 26 160 9.7 17.7 0.00 0.00 0.00 93 1005.6
20260506013857 26 121 9.7 19.3 0.00 0.00 0.00 93 1005.5
20260506013345 26 163 12.9 24.1 0.00 0.00 0.00 93 1005.5
20260506013054 26 169 11.3 24.1 0.00 0.00 0.00 93 1005.2
20260506012340 26 117 11.3 17.7 0.00 0.00 0.00 93 1005.1
20260506011813 26 132 11.3 25.7 0.00 0.00 0.00 93 1005.1
20260506011314 26 115 11.3 22.5 0.00 0.00 0.00 92 1004.9
20260506010802 26 113 11.3 19.3 0.00 0.00 0.00 92 1005.0
20260506010305 26 171 9.7 17.7 0.00 0.00 0.00 92 1005.0
20260506005739 26 128 11.3 20.9 0.00 0.00 0.00 92 1005.0
20260506005211 26 125 11.3 20.9 0.00 0.00 0.00 91 1004.9
20260506004702 26 152 11.3 19.3 0.00 0.00 0.00 91 1004.9
20260506004421 26 153 11.3 25.7 0.00 0.00 0.00 91 1004.9
20260506003629 26 148 12.9 24.1 0.00 0.00 0.00 91 1004.7
20260506003101 26 134 14.5 24.1 0.00 0.00 0.00 91 1004.7
20260506002600 26 166 12.9 24.1 0.00 0.00 0.00 91 1004.8
20260506002101 26 114 11.3 22.5 0.00 0.00 0.00 91 1004.8
20260506001557 26 119 11.3 22.5 0.00 0.00 0.00 90 1004.8
20260506001054 26 103 11.3 20.9 0.00 0.00 0.00 90 1004.8
20260506000550 26 136 12.9 24.1 0.00 0.00 0.00 90 1004.7
20260506000045 26 155 14.5 24.1 0.00 0.00 0.00 89 1004.7
20260505235535 27 121 16.1 32.2 0.00 0.00 0.00 89 1004.7
20260505235011 27 145 17.7 32.2 0.00 0.00 0.00 88 1004.8
20260505234500 27 144 16.1 25.7 0.00 0.00 0.00 89 1004.7
20260505234158 27 153 14.5 25.7 0.00 0.00 0.00 88 1004.5
20260505233405 27 122 12.9 25.7 0.00 0.00 0.00 88 1004.6
20260505232845 27 167 14.5 22.5 0.00 0.00 0.00 88 1004.7
20260505232346 27 170 17.7 37.0 0.00 0.00 0.00 88 1004.8
20260505231843 27 157 17.7 37.0 0.00 0.00 0.00 88 1004.8
20260505231345 27 123 17.7 30.6 0.00 0.00 0.00 88 1004.9
20260505230821 27 108 16.1 30.6 0.00 0.00 0.00 88 1004.8
20260505230251 27 148 17.7 33.8 0.00 0.00 0.00 88 1004.7
20260505225719 27 130 17.7 33.8 0.00 0.00 0.00 87 1004.8
20260505225215 27 117 16.1 29.0 0.00 0.00 0.00 87 1004.7
20260505224934 27 132 16.1 29.0 0.00 0.00 0.00 87 1004.8
20260505224437 27 132 17.7 29.0 0.00 0.00 0.00 87 1004.9
20260505223650 27 133 16.1 29.0 0.00 0.00 0.00 87 1004.9
20260505223143 27 157 16.1 27.4 0.00 0.00 0.00 87 1005.0
20260505222642 27 148 17.7 27.4 0.00 0.00 0.00 87 1005.1
20260505222135 27 142 16.1 33.8 0.00 0.00 0.00 87 1005.1
20260505221629 27 132 16.1 33.8 0.00 0.00 0.00 86 1005.1
20260505221101 27 147 17.7 30.6 0.00 0.00 0.00 86 1005.2
20260505220531 27 126 16.1 30.6 0.00 0.00 0.00 86 1005.1
20260505220030 27 123 16.1 32.2 0.00 0.00 0.00 86 1005.1
20260505215503 27 171 17.7 35.4 0.00 0.00 0.00 86 1005.2
20260505215005 27 144 17.7 35.4 0.00 0.00 0.00 86 1005.3
20260505214437 27 153 16.1 33.8 0.00 0.00 0.00 85 1005.4
20260505213937 27 122 16.1 30.6 0.00 0.00 0.00 85 1005.5
20260505213648 27 122 14.5 30.6 0.00 0.00 0.00 85 1005.4
20260505212901 27 129 16.1 37.0 0.00 0.00 0.00 85 1005.5
20260505212334 27 135 17.7 37.0 0.00 0.00 0.00 84 1005.6
20260505211835 27 134 17.7 29.0 0.00 0.00 0.00 84 1005.6
20260505211336 27 143 16.1 29.0 0.00 0.00 0.00 84 1005.6
20260505210839 27 153 16.1 27.4 0.00 0.00 0.00 83 1005.7
20260505210335 27 107 14.5 25.7 0.00 0.00 0.00 84 1005.8
20260505205825 28 179 12.9 25.7 0.00 0.00 0.00 83 1005.8
20260505205258 28 128 14.5 20.9 0.00 0.00 0.00 84 1005.8
20260505204739 27 112 14.5 27.4 0.00 0.00 0.00 85 1005.9
20260505204211 27 165 14.5 24.1 0.00 0.00 0.00 85 1006.0
20260505203917 27 115 14.5 24.1 0.00 0.00 0.00 85 1006.1
20260505203424 27 103 12.9 25.7 0.00 0.00 0.00 85 1006.3
20260505202629 27 148 12.9 25.7 0.00 0.00 0.00 85 1006.4
20260505202059 27 146 12.9 25.7 0.00 0.00 0.00 85 1006.3
20260505201026 27 158 12.9 24.1 0.00 0.00 0.00 86 1006.4
20260505200521 27 134 12.9 24.1 0.00 0.00 0.00 86 1006.4
20260505200009 27 190 14.5 24.1 0.00 0.00 0.00 86 1006.5
20260505195442 27 193 14.5 25.7 0.00 0.00 0.00 86 1006.7
20260505194909 27 154 14.5 25.7 0.00 0.00 0.00 86 1006.6
20260505194341 27 163 14.5 24.1 0.00 0.00 0.00 86 1006.8
20260505194057 27 159 12.9 24.1 0.00 0.00 0.00 87 1006.8
20260505193321 27 173 12.9 24.1 0.00 0.00 0.00 87 1006.8
20260505192250 27 175 14.5 35.4 0.00 0.00 0.00 87 1006.8
20260505192012 27 148 14.5 25.7 0.00 0.00 0.00 87 1006.9
20260505190710 27 189 14.5 29.0 0.00 0.00 0.00 85 1006.9
20260505190207 27 178 12.9 24.1 0.00 0.00 0.00 86 1007.0
20260505185637 27 159 12.9 24.1 0.00 0.00 0.00 86 1007.0
20260505185113 27 207 16.1 29.0 0.00 0.00 0.00 86 1007.0
20260505184544 27 171 16.1 29.0 0.00 0.00 0.00 85 1007.0
20260505184041 27 167 14.5 29.0 0.00 0.00 0.00 85 1007.1
20260505183537 27 150 14.5 29.0 0.00 0.00 0.00 85 1007.1
20260505183012 27 124 14.5 25.7 0.00 0.00 0.00 86 1007.2
20260505182505 27 182 12.9 24.1 0.00 0.00 0.00 86 1007.2
20260505182001 27 189 14.5 29.0 0.00 0.00 0.00 86 1007.3
20260505181430 27 141 14.5 29.0 0.00 0.00 0.00 86 1007.2
20260505180931 27 145 14.5 25.7 0.00 0.00 0.00 86 1007.4
20260505180428 27 172 14.5 25.7 0.00 0.00 0.00 86 1007.3
20260505180142 27 197 12.9 25.7 0.00 0.00 0.00 87 1007.4
20260505175641 27 175 14.5 25.7 0.00 0.00 0.00 87 1007.4
20260505174405 27 190 14.5 27.4 0.00 0.00 0.00 87 1007.5
20260505173859 26 183 12.9 27.4 0.00 0.00 0.00 87 1007.5
20260505173348 26 196 12.9 22.5 0.00 0.00 0.00 88 1007.6
20260505173035 26 169 14.5 22.5 0.00 0.00 0.00 88 1007.6
20260505172250 26 182 16.1 25.7 0.00 0.00 0.00 87 1007.5
20260505171731 26 155 16.1 25.7 0.00 0.00 0.00 87 1007.5
20260505171231 26 138 14.5 25.7 0.00 0.00 0.00 87 1007.7
20260505170713 26 147 12.9 19.3 0.00 0.00 0.00 88 1007.7
20260505170429 26 153 14.5 24.1 0.00 0.00 0.00 88 1007.7
20260505165657 26 153 17.7 32.2 0.00 0.00 0.00 88 1007.8
20260505165401 26 163 19.3 32.2 0.00 0.00 0.00 88 1007.8
20260505164638 26 209 17.7 29.0 0.00 0.00 0.00 88 1007.8
20260505164128 26 182 16.1 29.0 0.00 0.00 0.00 88 1007.8
20260505163628 26 165 16.1 33.8 0.00 0.00 0.00 88 1007.7
20260505163326 26 199 14.5 33.8 0.00 0.00 0.00 88 1007.7
20260505162553 26 155 12.9 19.3 0.00 0.00 0.00 90 1007.7
20260505162025 26 190 11.3 20.9 0.00 0.00 0.00 91 1007.7
20260505161731 26 183 11.3 20.9 0.00 0.00 0.00 92 1007.6
20260505160933 25 164 12.9 19.3 0.00 0.00 0.00 92 1007.7
20260505160415 25 165 14.5 14.5 0.00 0.00 0.00 92 1007.8
20260505153227 25 129 12.9 27.4 0.00 0.00 0.00 92 1007.5
20260505152700 25 184 12.9 22.5 0.00 0.00 0.00 92 1007.5
20260505152415 25 167 11.3 22.5 0.00 0.00 0.00 92 1007.4
20260505151648 25 152 12.9 20.9 0.00 0.00 0.00 93 1007.5
20260505151146 25 184 12.9 20.9 0.00 0.00 0.00 93 1007.6
20260505150633 25 179 12.9 22.5 0.00 0.00 0.00 93 1007.6
20260505150113 25 157 12.9 22.5 0.00 0.00 0.00 93 1007.4
20260505140315 24 209 11.3 19.3 0.00 0.00 0.00 96 1007.4
20260505130155 23 181 8.0 14.5 0.00 0.00 0.00 96 1007.3